Temperature
20 20 19 19 19 18 18 18 18 17 17 17 16 16 16 16 16 16 16 16 16 16 16 16 16 15 15 15 15 15 15 14 14 13 13 13 13 13 13 12 12 12 12
20 20 19 19 19 18 18 18 17 17 17 17 16 16 16 16 16 16 16 15 15 15 15 15 15 15 15 15 15 14 14 14 14 13 13 13 12 12 12 12 12 12 12
20 20 19 19 19 19 18 18 17 17 17 16 16 16 16 16 16 16 15 15 15 15 15 15 15 15 15 14 14 14 14 14 14 13 13 12 12 12 12 11 11 11 11
20 20 20 19 19 18 18 18 17 17 17 16 16 16 16 15 15 15 15 15 15 15 14 14 14 14 14 14 14 14 13 13 13 13 12 12 12 11 11 11 11 11 10
20 20 20 19 19 18 18 17 17 17 17 16 16 16 15 15 15 15 15 15 15 14 14 14 14 14 14 14 13 13 13 13 13 12 12 12 11 11 11 11 11 10 10
20 20 20 19 19 18 18 17 17 17 17 16 16 16 15 15 15 15 15 14 14 14 14 13 13 13 13 13 13 13 13 12 12 12 12 11 11 11 11 10 10 10 10
20 20 20 19 19 18 18 17 17 17 16 16 16 15 15 15 15 14 14 14 14 14 13 13 13 13 13 13 12 12 12 12 12 12 11 11 11 11 10 10 10 10 10
20 20 19 19 19 18 18 17 17 16 16 16 15 15 15 15 14 14 14 14 13 13 13 13 13 12 12 12 12 12 12 11 11 11 11 11 10 10 10 10 10 9 9
20 20 19 19 18 18 18 17 17 16 16 15 15 15 14 14 14 14 13 13 13 13 12 12 12 12 12 12 12 11 11 11 11 11 10 10 10 10 10 10 9 9 9
20 19 19 18 18 17 17 17 16 16 15 15 15 14 14 14 14 13 13 13 12 12 12 12 12 11 11 11 11 11 11 11 10 10 10 10 10 10 9 9 9 9 9
19 18 18 17 17 17 16 16 16 15 15 15 14 14 14 13 13 13 13 12 12 12 12 11 11 11 11 11 11 11 10 10 10 10 10 10 9 9 9 9 9 9 9
18 18 17 17 17 16 16 15 15 15 15 14 14 14 13 13 13 13 12 12 12 11 11 11 11 11 11 10 10 10 10 10 10 10 10 9 9 9 9 9 9 8 8
18 17 17 16 16 16 15 15 15 14 14 14 14 13 13 13 12 12 12 12 11 11 11 11 10 10 10 10 10 10 10 10 10 9 9 9 9 9 9 8 8 8 8
17 17 16 16 16 15 15 14 14 14 14 14 13 13 13 12 12 12 11 11 11 11 11 10 10 10 10 10 10 10 10 9 9 9 9 9 9 9 8 8 8 8 8
17 16 16 15 15 15 15 14 14 14 13 13 13 13 13 12 12 12 12 11 11 11 10 10 10 10 10 10 10 9 9 9 9 9 9 9 8 8 8 8 8 8 8
16 16 15 15 15 14 14 14 13 13 13 13 12 12 12 12 12 11 11 11 11 10 10 10 10 10 10 10 9 9 9 9 9 9 9 8 8 8 8 8 8 8 8
16 16 15 15 14 14 14 13 13 13 12 12 12 12 12 11 11 11 11 11 10 10 10 10 10 10 10 10 10 9 9 9 9 9 8 8 8 8 8 8 8 8 8
15 15 15 14 14 14 13 13 13 13 12 12 12 12 11 11 11 11 11 11 10 10 10 10 10 10 10 10 10 9 9 9 9 8 8 8 8 8 8 8 8 7 7
15 14 14 14 13 13 13 12 12 12 12 12 12 12 11 11 11 11 11 11 11 10 10 10 10 10 10 9 9 9 9 9 8 8 8 8 8 8 8 8 7 7 7
14 14 14 13 13 13 12 12 12 12 11 11 11 11 11 11 11 11 11 10 10 10 10 10 10 10 9 9 9 9 9 9 9 8 8 8 8 8 7 7 7 7 7
14 13 13 13 13 12 12 12 12 11 11 11 11 11 11 11 11 10 10 10 10 10 10 10 9 9 9 9 9 9 9 8 8 8 8 8 7 7 7 7 7 7 7
13 13 13 13 12 12 12 11 11 11 11 11 11 11 10 10 10 10 10 10 10 9 9 9 9 9 9 9 9 9 8 8 8 8 8 8 7 7 7 7 7 6 6
13 13 12 12 12 12 11 11 11 11 11 10 10 10 10 10 10 10 10 10 9 9 9 9 9 9 9 9 8 8 8 8 8 8 7 7 7 7 7 6 6 6 6
12 12 12 12 12 11 11 11 11 11 10 10 10 10 10 10 10 9 9 9 9 9 9 9 9 8 8 8 8 8 7 7 7 7 7 7 7 7 6 6 6 6 6
12 12 12 11 11 11 11 11 10 10 10 10 10 10 9 9 9 9 9 9 9 9 8 8 8 8 8 8 8 7 7 7 7 7 7 7 6 6 6 6 6 5 5
12 11 11 11 11 11 10 10 10 10 10 10 10 10 9 9 9 9 9 9 9 8 8 8 8 8 8 8 7 7 7 7 7 7 6 6 6 6 6 5 5 5 5
Wind_Speed
5 4 4 3 3 3 2 2 1 1 1 1 1 1 2 2 2 2 2 2 2 2 2 2 2 1 1 1 1 1 2 2 2 1 2 2 3 4 5 7 7 7 8
6 5 5 4 3 3 2 2 1 1 1 2 2 2 2 2 2 2 2 2 3 2 2 2 2 2 3 1 1 2 2 2 3 3 2 2 3 4 5 5 5 6 6
6 5 4 4 4 3 2 2 2 2 2 2 3 2 2 2 2 2 3 3 3 2 2 2 2 3 2 2 2 2 2 3 3 4 3 2 2 3 4 4 4 4 5
6 6 5 4 4 3 3 2 2 3 3 2 2 2 2 2 2 3 3 3 3 3 2 2 2 2 2 2 3 3 4 4 5 5 4 3 2 2 3 3 3 3 3
6 6 5 4 4 4 3 3 3 3 3 3 3 3 2 2 2 3 3 4 4 3 3 3 3 5 5 4 3 3 4 4 4 4 4 3 2 2 2 1 2 1 2
6 5 4 4 4 4 4 3 3 3 3 3 3 3 3 2 3 4 4 4 4 4 3 4 5 6 7 7 7 7 6 5 4 3 3 3 2 2 2 2 2 1 0
6 5 5 5 5 5 5 4 3 3 3 3 3 3 3 3 5 5 6 4 4 3 3 3 4 5 6 6 8 8 7 6 4 3 3 3 3 3 3 3 2 1 1
6 5 5 5 5 5 5 4 3 3 3 2 2 3 3 3 4 5 7 5 5 4 3 3 4 4 4 5 6 6 5 5 4 3 3 2 2 3 4 3 3 2 2
6 6 5 5 5 4 5 4 3 3 3 2 3 3 3 2 4 5 5 4 5 4 4 4 4 4 4 6 6 5 5 4 6 7 6 5 5 5 6 4 4 3 1
6 5 5 5 5 5 4 4 3 3 3 3 3 3 3 2 3 5 5 4 4 3 3 4 4 4 4 5 4 4 3 2 3 4 5 6 5 5 5 3 3 3 1
5 5 5 5 5 4 4 4 4 4 4 4 3 3 3 2 3 4 5 3 3 3 2 2 1 3 4 4 4 3 3 2 2 3 3 3 3 3 2 2 2 2 2
7 6 5 5 4 4 5 4 4 5 5 3 2 2 1 1 2 3 5 4 4 3 2 1 1 3 3 4 3 3 5 4 3 3 2 2 2 1 1 1 1 1 1
7 6 5 5 4 4 5 6 4 4 4 3 2 2 1 0 1 2 4 4 4 3 2 2 2 3 3 3 3 4 4 2 2 2 1 0 0 1 1 1 2 2 2
7 5 5 5 4 4 3 3 4 3 4 3 3 2 1 1 1 1 1 2 2 2 1 2 3 4 3 3 2 2 1 1 2 1 1 0 0 1 1 1 1 1 1
7 5 5 4 4 3 3 2 2 2 4 4 4 4 3 3 3 4 4 2 3 3 3 2 2 1 1 1 1 1 1 1 1 1 1 0 0 1 1 0 0 0 0
6 5 4 4 3 3 3 2 2 1 2 3 3 3 3 3 3 4 5 5 5 6 4 2 2 2 2 2 2 1 1 1 1 1 1 1 1 1 1 0 1 1 1
6 5 4 4 4 4 4 4 2 1 2 2 2 3 4 3 4 4 4 4 5 7 3 3 3 3 3 3 3 2 2 2 2 2 2 2 2 2 1 1 1 1 2
5 5 5 4 4 4 4 4 3 3 2 1 1 2 3 3 3 4 5 4 3 3 3 4 4 4 3 3 3 3 3 2 2 2 3 2 2 2 2 2 2 3 2
4 4 4 4 4 4 4 4 3 3 3 2 0 1 2 2 2 3 5 3 4 4 4 4 4 4 4 4 3 3 3 3 3 3 3 3 3 3 3 3 3 3 3
3 5 5 4 4 4 4 4 4 4 3 3 3 3 2 2 2 2 3 3 4 4 4 4 4 4 4 4 3 3 3 3 3 3 3 3 3 3 3 4 3 3 4
3 4 6 5 4 5 5 5 5 4 4 4 4 4 5 4 4 4 4 4 5 5 4 4 4 4 4 4 4 4 4 4 4 3 3 3 3 3 3 3 4 4 4
3 4 4 4 4 4 4 5 4 4 5 4 3 2 5 4 4 4 4 5 5 5 5 5 5 4 4 4 4 4 5 4 4 4 4 4 4 4 4 4 4 3 4
3 4 4 3 3 4 4 4 4 4 4 4 3 3 3 4 4 4 5 5 4 5 5 5 5 4 5 5 5 5 5 5 5 5 4 4 4 4 4 4 4 4 4
3 4 4 4 3 4 4 4 4 4 4 4 4 4 4 4 4 5 4 4 4 5 5 6 6 6 6 5 5 6 6 7 6 6 6 5 4 4 4 4 5 5 5
3 3 3 3 4 4 3 3 3 4 4 4 4 4 4 4 4 4 4 4 5 4 5 5 5 6 7 7 6 6 7 8 7 6 6 5 5 5 4 5 4 4 4
4 4 3 3 3 3 4 4 4 4 4 4 4 4 4 4 4 4 4 4 4 4 5 5 6 6 6 6 6 6 6 7 7 8 6 5 4 4 4 4 5 5 5
Wind_Direction
177 171 167 173 175 171 177 200 198 155 109 124 118 97 88 82 84 96 90 84 82 57 50 69 48 41 63 66 104 116 118 131 151 120 78 70 83 94 87 86 83 82 81
173 166 172 175 166 164 173 195 175 139 119 122 116 103 94 85 84 99 102 93 94 83 70 71 46 55 56 56 97 112 117 122 144 139 116 88 84 102 96 90 85 84 86
163 162 165 169 166 167 171 169 138 125 111 105 106 104 97 94 95 98 108 106 100 93 83 81 64 74 63 62 85 96 103 110 119 132 120 94 90 98 88 79 75 65 79
157 156 160 166 164 158 144 132 124 118 111 110 105 106 104 98 98 105 106 107 99 84 74 74 74 84 88 88 88 93 105 107 112 121 120 110 103 96 97 92 77 51 51
156 160 164 155 143 131 122 117 110 105 107 107 106 99 99 102 109 121 119 112 105 90 70 61 68 78 84 89 99 107 112 115 119 122 124 119 120 122 132 128 111 78 48
151 156 145 138 137 133 129 117 105 97 94 89 91 96 89 88 98 112 117 109 102 94 80 64 69 69 78 78 85 92 103 120 130 131 138 150 166 162 142 142 132 109 74
148 147 146 144 144 142 140 128 125 121 109 98 96 96 90 75 90 107 109 109 99 88 85 80 78 73 76 82 77 77 76 82 104 140 150 170 176 174 160 154 156 146 170
141 141 147 147 148 145 140 146 151 143 136 129 114 105 97 76 91 106 110 101 93 84 82 92 94 82 82 93 89 77 67 60 71 95 137 153 152 158 164 161 151 122 89
149 153 157 147 147 152 153 154 153 144 135 129 119 113 105 78 90 105 111 101 91 78 70 77 91 88 84 98 97 88 72 54 65 79 91 93 95 109 130 124 120 121 118
165 161 150 141 155 165 165 156 142 136 138 128 115 111 110 93 98 114 118 112 103 90 70 61 69 87 92 107 111 109 95 64 67 70 68 67 77 90 110 133 153 148 137
147 140 138 144 151 153 148 143 138 129 119 115 113 96 91 91 106 120 129 126 132 119 102 77 55 81 88 104 120 127 145 127 94 88 79 68 65 70 83 108 156 169 169
138 139 142 144 141 143 141 138 134 129 122 114 114 107 86 84 115 139 140 140 142 136 144 150 128 104 97 102 115 119 115 105 101 94 84 68 58 39 26 31 147 186 209
139 143 139 134 130 138 146 146 141 139 141 147 155 161 175 113 81 125 141 145 149 147 162 160 140 117 102 94 101 113 114 114 116 114 114 106 299 311 347 38 66 75 67
144 149 146 143 136 130 133 147 154 162 165 168 177 189 195 184 185 160 146 145 135 131 124 107 103 95 89 84 83 93 113 142 150 153 162 286 40 60 56 53 62 36 31
149 153 150 149 148 143 141 150 175 196 196 189 195 189 184 206 220 190 175 182 187 175 136 103 93 99 100 72 55 52 70 107 132 139 142 124 128 114 85 32 107 134 158
155 159 161 161 157 154 150 123 73 124 141 171 184 184 209 218 199 184 192 193 183 160 139 147 172 182 193 200 202 204 188 193 194 186 189 195 209 212 205 182 174 192 230
163 164 164 165 165 168 167 167 166 79 82 120 169 190 203 208 197 193 190 180 169 157 162 187 200 208 214 216 216 213 218 220 201 195 201 211 224 231 227 228 226 236 250
159 166 171 173 175 174 175 178 177 174 184 245 254 215 212 209 196 187 171 143 150 177 201 206 213 215 215 217 219 218 222 218 210 217 221 224 220 221 228 232 230 240 249
169 176 173 167 168 168 169 170 172 177 187 199 225 250 219 202 177 172 159 176 198 209 214 220 222 221 222 223 225 221 217 218 220 218 225 226 221 219 232 239 242 239 242
177 173 167 165 166 167 170 176 183 189 191 198 216 223 181 158 175 190 196 210 215 220 220 223 227 227 225 225 224 221 223 225 224 224 229 228 224 224 234 243 246 246 247
169 166 164 165 176 180 183 189 193 196 202 212 225 218 188 195 208 214 215 220 223 224 221 220 222 226 228 223 217 218 220 227 226 225 230 234 230 232 237 242 246 245 250
159 159 169 178 181 184 186 191 193 198 207 216 233 224 201 213 221 224 227 230 230 228 224 217 221 226 226 224 218 214 217 224 226 224 228 231 233 236 240 243 245 245 247
160 164 169 174 178 177 182 190 195 199 206 214 217 213 202 216 225 228 233 235 229 224 218 214 220 228 230 227 222 217 220 228 228 224 226 231 233 237 242 247 248 249 250
165 172 172 171 173 179 187 194 202 206 208 211 215 218 217 220 227 230 233 234 227 224 220 217 220 223 226 227 230 231 234 235 230 225 221 228 235 240 241 248 252 251 251
168 171 175 178 179 184 190 199 207 209 211 210 212 220 225 224 226 229 229 227 223 222 219 215 218 222 227 226 229 236 241 239 236 233 224 224 230 232 236 241 247 251 254
171 175 180 182 184 191 197 204 210 214 218 221 221 224 227 225 225 227 223 219 220 222 219 217 221 223 224 227 233 236 237 237 238 235 225 222 224 230 234 241 248 249 253
Height
1547 1548 1548 1549 1549 1550 1550 1549 1549 1549 1549 1548 1548 1548 1547 1547 1547 1546 1546 1545 1545 1545 1545 1545 1545 1545 1545 1545 1546 1546 1546 1547 1547 1548 1548 1549 1549 1549 1549 1550 1550 1550 1549
1546 1547 1548 1548 1548 1549 1549 1549 1548 1548 1548 1548 1547 1547 1547 1546 1546 1545 1545 1545 1544 1544 1544 1544 1544 1544 1544 1544 1544 1544 1545 1545 1546 1546 1547 1548 1548 1549 1549 1549 1549 1549 1549
1544 1545 1546 1547 1547 1547 1548 1548 1548 1547 1547 1547 1547 1546 1546 1546 1545 1545 1545 1544 1544 1544 1543 1543 1543 1543 1543 1543 1543 1543 1543 1544 1545 1545 1546 1547 1547 1548 1548 1548 1549 1549 1549
1543 1544 1544 1545 1545 1546 1546 1547 1547 1546 1546 1546 1546 1546 1545 1545 1545 1545 1544 1544 1544 1543 1543 1543 1543 1543 1543 1543 1542 1543 1543 1543 1544 1544 1545 1546 1547 1547 1548 1548 1548 1548 1548
1540 1542 1542 1543 1544 1544 1545 1545 1546 1545 1545 1545 1545 1545 1544 1544 1544 1544 1544 1543 1543 1543 1543 1542 1542 1542 1542 1542 1542 1542 1542 1542 1543 1543 1544 1545 1546 1546 1547 1547 1548 1548 1548
1539 1541 1542 1542 1542 1543 1544 1544 1544 1544 1544 1544 1544 1544 1543 1543 1543 1543 1543 1543 1542 1542 1542 1542 1542 1542 1542 1542 1542 1542 1542 1542 1542 1543 1543 1544 1545 1546 1546 1547 1547 1547 1547
1538 1539 1540 1540 1540 1541 1542 1543 1543 1543 1543 1543 1543 1543 1542 1542 1542 1542 1542 1542 1542 1542 1542 1542 1542 1542 1542 1542 1542 1542 1542 1542 1543 1543 1543 1543 1544 1545 1545 1546 1546 1546 1546
1536 1537 1538 1539 1539 1539 1540 1541 1541 1542 1542 1542 1542 1542 1542 1542 1542 1542 1542 1541 1541 1541 1541 1541 1542 1542 1542 1542 1542 1542 1542 1542 1542 1542 1543 1543 1544 1544 1545 1545 1545 1546 1546
1533 1535 1536 1536 1538 1538 1539 1539 1540 1540 1540 1540 1540 1541 1541 1541 1541 1541 1541 1541 1541 1541 1541 1542 1542 1542 1542 1543 1543 1543 1542 1543 1543 1543 1543 1543 1543 1544 1544 1544 1544 1544 1544
1531 1532 1534 1535 1536 1537 1537 1538 1538 1538 1539 1539 1539 1539 1539 1540 1540 1540 1540 1540 1540 1541 1541 1542 1542 1542 1543 1543 1543 1543 1543 1543 1543 1543 1543 1543 1543 1543 1543 1543 1543 1543 1543
1529 1531 1532 1533 1534 1534 1534 1536 1537 1537 1537 1537 1537 1538 1538 1538 1539 1539 1540 1540 1540 1540 1541 1541 1542 1542 1543 1543 1543 1543 1544 1544 1543 1543 1543 1543 1543 1543 1543 1543 1543 1543 1543
1527 1528 1530 1532 1532 1533 1533 1534 1535 1535 1536 1536 1536 1536 1537 1537 1538 1538 1538 1539 1540 1540 1540 1541 1542 1542 1543 1543 1543 1543 1544 1544 1543 1543 1543 1543 1543 1543 1543 1542 1542 1542 1542
1525 1526 1528 1530 1531 1532 1532 1533 1534 1534 1534 1534 1535 1535 1535 1536 1537 1537 1537 1538 1539 1539 1540 1541 1541 1542 1542 1543 1543 1543 1543 1543 1543 1543 1543 1542 1542 1542 1542 1542 1542 1542 1541
1523 1525 1526 1527 1528 1529 1530 1531 1532 1532 1532 1533 1533 1534 1535 1535 1536 1536 1537 1538 1538 1539 1539 1540 1541 1541 1542 1542 1542 1542 1542 1542 1542 1542 1542 1542 1542 1542 1542 1541 1541 1541 1540
1520 1523 1524 1525 1526 1527 1528 1529 1530 1530 1531 1532 1532 1533 1533 1534 1535 1535 1536 1537 1537 1538 1539 1539 1540 1540 1541 1541 1541 1541 1541 1541 1541 1541 1541 1541 1541 1541 1541 1540 1540 1539 1539
1518 1520 1521 1523 1524 1525 1526 1526 1527 1529 1529 1530 1531 1531 1532 1533 1534 1534 1535 1535 1536 1537 1537 1538 1538 1539 1539 1539 1539 1540 1540 1540 1540 1540 1540 1540 1540 1539 1539 1539 1538 1538 1537
1516 1517 1519 1521 1522 1522 1523 1524 1525 1527 1527 1528 1529 1529 1530 1531 1531 1532 1533 1533 1534 1535 1535 1535 1536 1537 1537 1538 1538 1538 1538 1538 1538 1538 1538 1538 1538 1538 1537 1537 1536 1536 1535
1514 1515 1517 1518 1519 1520 1521 1522 1523 1524 1525 1525 1526 1527 1527 1528 1529 1530 1530 1531 1531 1532 1532 1533 1534 1534 1535 1535 1535 1535 1536 1536 1536 1536 1535 1535 1535 1535 1535 1534 1534 1533 1532
1512 1513 1514 1515 1517 1517 1518 1519 1520 1521 1522 1523 1524 1524 1525 1525 1526 1527 1527 1528 1528 1529 1529 1530 1531 1532 1532 1532 1533 1533 1533 1533 1533 1533 1533 1532 1532 1532 1532 1531 1531 1530 1530
1510 1511 1512 1513 1514 1514 1515 1516 1517 1518 1519 1520 1520 1521 1521 1522 1523 1524 1524 1525 1525 1526 1526 1527 1528 1528 1529 1529 1529 1530 1530 1529 1529 1530 1529 1529 1529 1528 1528 1528 1527 1527 1526
1507 1508 1509 1510 1511 1511 1512 1513 1514 1515 1516 1517 1517 1518 1518 1519 1520 1520 1521 1522 1522 1523 1523 1524 1524 1525 1525 1526 1526 1526 1526 1526 1526 1526 1526 1525 1525 1525 1524 1524 1523 1523 1522
1504 1505 1506 1507 1508 1508 1509 1511 1512 1512 1513 1514 1514 1515 1515 1516 1516 1517 1518 1518 1519 1519 1520 1520 1521 1521 1522 1522 1522 1522 1522 1522 1522 1522 1522 1521 1521 1520 1520 1520 1519 1519 1518
1502 1502 1503 1504 1505 1506 1507 1508 1508 1509 1510 1510 1511 1511 1512 1512 1513 1513 1514 1514 1515 1515 1516 1516 1517 1517 1517 1518 1518 1518 1518 1517 1517 1517 1517 1517 1517 1516 1516 1515 1515 1514 1514
1499 1500 1501 1502 1502 1503 1504 1504 1505 1506 1506 1507 1507 1508 1508 1509 1509 1510 1511 1511 1511 1512 1512 1512 1512 1512 1513 1513 1514 1513 1513 1513 1513 1513 1513 1512 1512 1512 1511 1510 1510 1509 1509
1497 1498 1499 1499 1500 1500 1501 1502 1502 1503 1503 1503 1504 1505 1505 1506 1506 1507 1507 1508 1508 1508 1508 1508 1508 1508 1509 1509 1509 1509 1509 1509 1509 1508 1508 1508 1507 1507 1506 1506 1505 1505 1504
1495 1496 1496 1497 1497 1498 1499 1500 1500 1500 1500 1501 1501 1502 1503 1503 1503 1503 1504 1504 1504 1504 1504 1504 1504 1504 1505 1504 1505 1504 1505 1504 1504 1504 1503 1503 1503 1502 1502 1501 1501 1500 1500